This is the latest recevied weather packets stored in our database for station/object N6GPM. If no packets are shown the sender has not sent any weather packets the latest 10 day(s).
| Time | Temp. | Humidity | Pressure | Rain* | Wind** | Luminosity | Snow |
|---|---|---|---|---|---|---|---|
| 1778096956 | 21.11° C | 48% | 1021.2 hPa | 0 mm | - | 726 W/m² | - |
| 1778096653 | 21.67° C | 48% | 1020.8 hPa | 0 mm | - | 734 W/m² | - |
| 1778096350 | 21.11° C | 49% | 1020.8 hPa | 0 mm | - | 744 W/m² | - |
| 1778096047 | 20.56° C | 51% | 1021.2 hPa | 0 mm | - | 739 W/m² | - |
| 1778095743 | 20.56° C | 50% | 1021.2 hPa | 0 mm | - | 748 W/m² | - |
| 1778095440 | 20.56° C | 53% | 1020.9 hPa | 0 mm | - | 735 W/m² | - |
| 1778095137 | 20° C | 52% | 1021.2 hPa | 0 mm | - | 740 W/m² | - |
| 1778094833 | 19.44° C | 53% | 1021.1 hPa | 0 mm | - | 726 W/m² | - |
| 1778094530 | 20° C | 53% | 1021.2 hPa | 0 mm | - | 726 W/m² | - |
| 1778094227 | 20° C | 53% | 1021.5 hPa | 0 mm | - | 726 W/m² | - |
| 1778093924 | 20° C | 51% | 1021.3 hPa | 0 mm | - | 738 W/m² | - |
| 1778093621 | 20° C | 53% | 1021.6 hPa | 0 mm | - | 788 W/m² | - |
| 1778093318 | 19.44° C | 53% | 1021.7 hPa | 0 mm | - | 779 W/m² | - |
| 1778093015 | 18.89° C | 55% | 1021.7 hPa | 0 mm | - | 816 W/m² | - |
| 1778092712 | 19.44° C | 54% | 1021.7 hPa | 0 mm | - | 836 W/m² | - |
| 1778092407 | 20° C | 55% | 1021.5 hPa | 0 mm | - | 867 W/m² | - |
| 1778092105 | 19.44° C | 56% | 1021.7 hPa | 0 mm | - | 863 W/m² | - |
| 1778091802 | 18.89° C | 55% | 1021.9 hPa | 0 mm | - | 861 W/m² | - |
| 1778091499 | 18.89° C | 57% | 1021.8 hPa | 0 mm | - | 878 W/m² | - |
| 1778091197 | 18.89° C | 59% | 1021.8 hPa | 0 mm | - | 870 W/m² | - |
| 1778090894 | 18.33° C | 57% | 1021.6 hPa | 0 mm | - | 861 W/m² | - |
| 1778090590 | 17.78° C | 60% | 1021.7 hPa | 0 mm | - | 912 W/m² | - |
| 1778090287 | 18.33° C | 59% | 1021.7 hPa | 0 mm | - | 936 W/m² | - |
| 1778089983 | 18.89° C | 57% | 1021.7 hPa | 0 mm | - | 921 W/m² | - |
| 1778089681 | 18.89° C | 59% | 1021.7 hPa | 0 mm | - | 889 W/m² | - |
* Rain latest hour (hover to see other rain measurements)
** Current wind speed in m/s (hover to see current wind gust speed)